EW7512 Weather Reports


Display with metric or nautical units.
time (UTC)temp
F
wind
direction
speed
MPH
gust
MPH
rain 1hr
in
rain 24hr
in
rain mn
in
humidity
%
barometer
mb
20260902132006 85 30 10.0 21.0 0.00 0.00 0.00 32 1016.0
20260902131506 86 360 13.0 19.0 0.00 0.00 0.00 32 1016.0
20260902131006 86 73 12.0 19.0 0.00 0.00 0.00 32 1016.0
20260902130506 86 13 10.0 20.0 0.00 0.00 0.00 32 1016.1
20260902130006 86 360 7.0 20.0 0.00 0.00 0.00 32 1016.1
20260902125505 86 360 11.0 20.0 0.00 0.00 0.00 31 1016.1
20260902125005 87 50 10.0 20.0 0.00 0.00 0.00 30 1016.1
20260902124505 87 94 8.0 18.0 0.00 0.00 0.00 30 1016.1
20260902124005 87 56 10.0 26.0 0.00 0.00 0.00 30 1016.1
20260902123504 87 26 9.0 26.0 0.00 0.00 0.00 30 1016.2
20260902123004 86 41 11.0 22.0 0.00 0.00 0.00 29 1016.2
20260902122504 87 42 12.0 22.0 0.00 0.00 0.00 30 1016.1
20260902122004 87 58 8.0 19.0 0.00 0.00 0.00 30 1016.2
20260902121504 87 87 10.0 19.0 0.00 0.00 0.00 29 1016.1
20260902121004 87 62 10.0 27.0 0.00 0.00 0.00 30 1016.2
20260902120504 87 34 10.0 27.0 0.00 0.00 0.00 30 1016.4
20260902120003 87 101 12.0 21.0 0.00 0.00 0.00 29 1016.3
20260902115504 87 75 12.0 21.0 0.00 0.00 0.00 30 1016.3
20260902115002 87 39 12.0 21.0 0.00 0.00 0.00 29 1016.4
20260902114503 87 38 12.0 19.0 0.00 0.00 0.00 30 1016.4
20260902114006 87 37 11.0 25.0 0.00 0.00 0.00 30 1016.5
20260902113501 87 30 13.0 25.0 0.00 0.00 0.00 30 1016.7
20260902113002 87 55 10.0 24.0 0.00 0.00 0.00 30 1016.6
20260902112502 87 346 12.0 24.0 0.00 0.00 0.00 30 1016.5
20260902112002 87 70 11.0 22.0 0.00 0.00 0.00 30 1016.7
20260902111502 88 310 9.0 20.0 0.00 0.00 0.00 29 1016.7
20260902111002 88 29 7.0 20.0 0.00 0.00 0.00 29 1016.7
20260902110504 88 67 9.0 19.0 0.00 0.00 0.00 29 1016.7
20260902110001 88 72 8.0 19.0 0.00 0.00 0.00 29 1016.8
20260902105602 88 45 9.0 21.0 0.00 0.00 0.00 29 1016.7
20260902105102 88 46 9.0 21.0 0.00 0.00 0.00 29 1016.7
20260902104600 87 56 10.0 20.0 0.00 0.00 0.00 28 1016.7
20260902104103 88 5 11.0 22.0 0.00 0.00 0.00 28 1016.8
20260902103601 88 81 12.0 22.0 0.00 0.00 0.00 28 1016.8
20260902103059 88 56 11.0 19.0 0.00 0.00 0.00 28 1016.8
20260902102559 88 92 8.0 18.0 0.00 0.00 0.00 27 1016.9
20260902102059 88 73 9.0 23.0 0.00 0.00 0.00 27 1016.9
20260902101558 88 342 10.0 23.0 0.00 0.00 0.00 27 1016.9
20260902101057 88 23 9.0 17.0 0.00 0.00 0.00 26 1016.9
20260902100557 88 355 10.0 18.0 0.00 0.00 0.00 27 1017.0
20260902100056 88 59 9.0 19.0 0.00 0.00 0.00 27 1017.1
20260902095556 87 88 10.0 20.0 0.00 0.00 0.00 28 1017.0
20260902095056 88 63 11.0 20.0 0.00 0.00 0.00 27 1017.1
20260902094556 88 80 5.0 17.0 0.00 0.00 0.00 29 1017.1
20260902094053 88 336 8.0 18.0 0.00 0.00 0.00 28 1017.1
20260902093552 88 30 8.0 18.0 0.00 0.00 0.00 30 1017.1
20260902093050 87 91 9.0 17.0 0.00 0.00 0.00 30 1017.3
20260902092549 87 40 8.0 17.0 0.00 0.00 0.00 30 1017.2
20260902092049 87 51 10.0 21.0 0.00 0.00 0.00 30 1017.1
20260902091550 87 38 13.0 21.0 0.00 0.00 0.00 30 1017.2
20260902091046 87 74 8.0 14.0 0.00 0.00 0.00 32 1017.3
20260902090545 87 37 7.0 15.0 0.00 0.00 0.00 34 1017.2
20260902090044 86 53 7.0 17.0 0.00 0.00 0.00 34 1017.3
20260902085542 86 5 10.0 17.0 0.00 0.00 0.00 33 1017.2
20260902085041 86 29 8.0 17.0 0.00 0.00 0.00 33 1017.3
20260902084542 86 62 8.0 18.0 0.00 0.00 0.00 34 1017.2
20260902084038 86 62 8.0 16.0 0.00 0.00 0.00 33 1017.3
20260902083536 86 33 10.0 16.0 0.00 0.00 0.00 33 1017.2
20260902083037 86 18 8.0 18.0 0.00 0.00 0.00 34 1017.3
20260902082534 86 33 8.0 18.0 0.00 0.00 0.00 33 1017.3
20260902082033 86 82 9.0 19.0 0.00 0.00 0.00 33 1017.3
20260902081531 85 76 8.0 19.0 0.00 0.00 0.00 34 1017.2
20260902081030 85 51 10.0 21.0 0.00 0.00 0.00 35 1017.2
20260902080529 85 50 10.0 21.0 0.00 0.00 0.00 34 1017.2
20260902080029 85 346 10.0 18.0 0.00 0.00 0.00 34 1017.2
20260902075528 85 36 9.0 18.0 0.00 0.00 0.00 34 1017.0
20260902075028 85 65 9.0 18.0 0.00 0.00 0.00 34 1017.1
20260902074529 85 44 8.0 16.0 0.00 0.00 0.00 35 1017.0
20260902074028 85 128 7.0 16.0 0.00 0.00 0.00 35 1017.0
20260902073525 85 40 6.0 15.0 0.00 0.00 0.00 36 1016.9
20260902073024 85 355 6.0 15.0 0.00 0.00 0.00 40 1016.9
20260902072524 84 346 7.0 14.0 0.00 0.00 0.00 40 1016.9
20260902072022 84 40 6.0 15.0 0.00 0.00 0.00 41 1016.8
20260902071521 84 53 8.0 15.0 0.00 0.00 0.00 40 1016.8
20260902071020 83 22 7.0 13.0 0.00 0.00 0.00 43 1016.8
20260902070518 83 5 7.0 12.0 0.00 0.00 0.00 44 1016.7
20260902070017 82 340 5.0 13.0 0.00 0.00 0.00 45 1016.7
20260902065515 82 44 5.0 13.0 0.00 0.00 0.00 45 1016.7
20260902065014 82 22 6.0 13.0 0.00 0.00 0.00 46 1016.6
20260902064522 82 52 6.0 14.0 0.00 0.00 0.00 46 1016.5
20260902064014 82 340 6.0 14.0 0.00 0.00 0.00 47 1016.5
20260902063512 81 66 5.0 11.0 0.00 0.00 0.00 47 1016.5
20260902063009 81 35 5.0 12.0 0.00 0.00 0.00 47 1016.5
20260902062508 81 345 6.0 15.0 0.00 0.00 0.00 46 1016.6
20260902062007 81 345 7.0 15.0 0.00 0.00 0.00 46 1016.6
20260902061505 81 50 7.0 14.0 0.00 0.00 0.00 47 1016.6
20260902061003 80 42 5.0 12.0 0.00 0.00 0.00 48 1016.6
20260902060502 80 338 4.0 15.0 0.00 0.00 0.00 49 1016.6
20260902060122 80 32 6.0 15.0 0.00 0.00 0.00 49 1016.6
20260902055559 80 53 5.0 14.0 0.00 0.00 0.00 49 1016.6
20260902055058 79 39 6.0 13.0 0.00 0.00 0.00 50 1016.5
20260902054607 79 346 4.0 12.0 0.00 0.00 0.00 52 1016.6
20260902054054 79 23 6.0 13.0 0.00 0.00 0.00 51 1016.6
20260902053553 79 41 5.0 13.0 0.00 0.00 0.00 52 1016.6